CZ-4C DEB, 42672

Orbit data source: Space-Track

CZ-4C DEB, 42672 is space debris in SSO originally from a launch on Thu, 26 Nov 2015 UTC launched from the Taiyaun Space Center, China (TSC). Debris objects in space refer to the collection of defunct objects orbiting the Earth. Examples of debris include non-operational satellites, rocket bodies, and fragments generated from explosions, collisions, or faulty payload assembly.

Loading next visibility...
CZ-4C DEB details
Identifier
42672, 2015-069E
Orbit
SSO
Last TLE update11 hours ago
Origin
Flag of CNCNSA (CN / PRC)
ManufacturerUnknown
MissionSpacecraft
Bus & MotorUnknown
MassUnknown
Launch date (UTC)
2015-11-26 (9 years ago)
Launch vehicleUnknown
Launch site
Taiyaun Space Center, China (TSC)
Object type
Payload
Rocket body
Debris
Shape & HBRUnknown
Radar Cross SectionSmall (<0.1 m²)

Expand to show TLE details & history

TLE from 11 hours ago
0 CZ-4C DEB
1 42672U 15069E   24361.13314680  .00026191  00000-0  28993-2 0  9996
2 42672  98.2375 312.8663 0106292 279.1863  79.7338 14.83227800478766
Epoch: 2024-12-26T03:11Z
Definitive object data (Epoch: 2024-12-26T03:11:43.883Z)
Latitude-0.00007°
Longitude169.81654°
Altitude609.679 km
Speed7.561 km/s
True Right ascension20h 51m 27s
True Declination0° 00' 00"
Sunlit
Object was in daylight at TLE epoch
Visualization TLE readout
Latitude-5.87014°
Longitude-10.57811°
Altitude624.841 km
Speed7.545 km/s
Apparent Right ascension06h 00m 28s
Apparent Declination-36° 07' 44"
Sunlit
Object is in full shadow
Visualization observer readout
Local Sidereal Time13:07:04
Azimuth248.57° W
Elevation-33.767°
Doppler factor1
Orbital elements
Apogee altitude690.55 km
Perigee altitude541.861 km
Semi-major axis6,994.343 km
Eccentricity0.0106292
Inclination98.2375°
RAAN312.8663°
Arg. of periapsis279.1863°
True anomaly80.93507°
Mean anomaly79.7338°
Eccentric anomaly80.33416°
Mean motion3.71042 °/min
BSTAR0.0028993
Orbital period97.02 mins
Loading maneuver chart data...
Loading historical data...
Loading historical data...
Loading historical data...
Loading historical data...
Loading historical data...
Loading historical data...
Loading historical data...

CZ-4C DEB Visibility forecast

Observer location: undefined°, undefined

Span
Click to sort rows by Start time (UTC) header in descending order
Start Az.
Max El. time (UTC)
Max El. Az.
Max El.
End time (UTC)
End Az.
7 mins2024-12-26 21:08:20.568Z174.555° S2024-12-26 21:11:20.568Z285.894° WNW43.825°2024-12-26 21:15:20.568Z343.254° N
4 mins2024-12-27 08:57:20.568Z66.308° ENE2024-12-27 08:59:20.568Z100.939° ESE19.145°2024-12-27 09:01:20.568Z131.917° SE
6 mins2024-12-27 10:32:20.568Z346.128° N2024-12-27 10:35:20.568Z281.333° WNW31.148°2024-12-27 10:38:20.568Z228.297° WSW
|